Flag for U.S.A. Weather past 2 weeks in Galveston, Texas, U.S.A.

Now
92 °F

Partly sunny.


Feels Like: 100 °F
Forecast: 80 / 91 °F
Wind: 6 mph from West

Location: Scholes Field

Current Time: Jul 29, 2014 at 1:48:17 PM

Latest Report: Jul 29, 2014 at 12:52 PM


Visibility: 10 mi

Pressure: 30.07 "Hg

Humidity: 52%

Dew point: 72 °F

Location of GalvestonLocation

Historic Weather in Galveston — Graph

°F

Galveston temperature yesterday

Maximum temperature yesterday: 91 °F (at 12:52 PM)
Minimum temperature yesterday: 80 °F (at 4:52 AM)
Average temperature yesterday: 86 °F

Past Weeks' High & Low Weather Summary

 TemperatureHumidityPressure
High92 °F (Jul 26, 1:52 PM)97% (Jul 20, 6:52 AM)30.13 "Hg (Jul 20, 6:52 AM)
Low75 °F (Jul 19, 4:52 AM)48% (Jul 25, 12:52 PM)29.84 "Hg (Jul 18, 4:52 AM)
Average84 °F78%29.99 "Hg
* Reported Jul 14 12:52 PM — Jul 29 12:52 PM, Galveston, Weather by CustomWeather, © 2014

Note: Actual official high and low records may vary slightly from our data, if they occured in-between our weather recording intervals... More about our weather records

Advertising

Galveston weather history for previous 24 hours

 ConditionsComfort  
Time TempWeatherWind HumidityBarometerVisibility
12:52 PM
Jul 29
92 °FPartly sunny.6 mph52%30.07 "Hg10 mi
11:52 AM89 °FSunny.7 mph63%30.09 "Hg10 mi
10:52 AM89 °FScattered clouds.8 mph63%30.11 "Hg10 mi
9:52 AM85 °FPassing clouds.8 mph75%30.10 "Hg10 mi
8:52 AM84 °FPartly sunny.8 mph83%30.09 "Hg10 mi
8:03 AM82 °FPassing clouds.7 mph88%30.09 "Hg10 mi
7:52 AM82 °FSunny.8 mph88%30.08 "Hg9 mi
6:52 AM81 °FPassing clouds.7 mph91%30.08 "Hg10 mi
5:59 AM81 °FPassing clouds.9 mph91%30.06 "Hg10 mi
4:52 AM81 °FClear.7 mph91%30.05 "Hg10 mi
3:52 AM82 °FClear.9 mph88%30.04 "Hg10 mi
2:52 AM82 °FClear.12 mph88%30.04 "Hg10 mi
1:52 AM83 °FClear.9 mph82%30.04 "Hg10 mi
12:52 AM83 °FClear.9 mph82%30.04 "Hg10 mi
11:52 PM
Jul 28
83 °FClear.12 mph85%30.05 "Hg10 mi
10:52 PM83 °FClear.9 mph82%30.05 "Hg10 mi
9:52 PM84 °FClear.10 mph83%30.06 "Hg10 mi
8:52 PM84 °FSunny.9 mph80%30.06 "Hg10 mi
7:52 PM86 °FSunny.13 mph72%30.05 "Hg10 mi
6:52 PM87 °FSunny.15 mph69%30.02 "Hg10 mi
5:52 PM88 °FSunny.15 mph70%30.03 "Hg10 mi
4:52 PM90 °FSunny.14 mph66%30.05 "Hg10 mi
3:52 PM91 °FSunny.13 mph64%30.08 "Hg10 mi
2:52 PM91 °FSunny.15 mph64%30.09 "Hg10 mi
1:52 PM90 °FPassing clouds.10 mph66%30.10 "Hg10 mi
Weather by CustomWeather, © 2014

See weather overviewHow to use our weather pages